Showing default

PROTOSAT-1, 61793

Orbit data source: Space-Track

PROTOSAT-1, 61793 is a Rwandan payload satellite in SSO that was launched on Tue, 05 Nov 2024 UTC via an ELECTRON launch vehicle from the Rocket Lab Launch Complex (RLLC). Payload-class satellites include a variety of spacecraft equipped with specific instruments for various scientific and technological missions. These include communications satellites like Starlink; space stations such as the ISS; scientific satellites like the Hubble; Earth observation satellites from companies like Planet Labs, Umbra, and HawkEye 360; GPS; miniature CubeSats for education and research; and military/defense satellites.

Loading next visibility...
Identifier
61793, 2024-201B
Orbit
SSO
Country
Flag of RWRW / RWA
Related business
Manufacturer
E-Space
Mission
Operational Commercial Communications
Bus & Motor
E-SPACE, Unknown motor
Mass
~100 kg wet, ~100 kg dry
Launch date (UTC)
2024-11-05 (1 year ago)
Launch vehicle
ELECTRON
Launch site
Rocket Lab Launch Complex (RLLC)
Object type
Payload
Rocket body
Debris
Shape & HBR
Box + 2 Pan, 0.5 m
Radar Cross Section
0.446 m², Large (>1 m²)

Expand to show TLE details & history
Last TLE update: 17 hours ago

TLE from 17 hours ago
0 PROTOSAT-1
1 61793U 24201B   25347.00588345  .00097851  00000-0  56905-2 0  9996
2 61793  97.9145 258.9417 0007919  23.6877 336.4715 15.11593836 60016
Epoch: 2025-12-13T00:08Z
TLE epoch observation values (Epoch: 2025-12-13T00:08:28.330Z)
Latitude
-0.00002°
Longitude
174.8843°
Altitude
529.386 km
Speed
7.601 km/s
True Right ascension
17h 15m 46s
True Declination
0° 00' 00"
Sunlit
Object was in daylight at epoch
Visualization orbit readout
Latitude
Unknown
Longitude
Unknown
Altitude
Unknown
Speed
Unknown
Apparent Right ascension
Unknown
Apparent Declination
Unknown
Sunlit
N/A
Visualization observer readout
Local Sidereal Time
15:17:05
Azimuth
Unknown
Elevation
Unknown
Doppler factor
Unknown
Orbital elements
Apogee altitude
533.807 km
Perigee altitude
522.869 km
Semi-major axis
6,906.475 km
Eccentricity
0.00079
Inclination
97.9145°
RAAN
258.9417°
Arg. of periapsis
23.6877°
True anomaly
336.43524°
Mean anomaly
336.4715°
Eccentric anomaly
336.45337°
Mean motion
3.78145 °/min
Orbital period
95.2 mins
BSTAR
0.0056905
Loading maneuver chart data...
Computing Atmospheric mass density...
Loading historical data...
Loading historical data...
Loading historical data...
Loading historical data...
Loading historical data...
Loading historical data...
Loading historical data...
Other satellites on launch #201 in the year 2024 (2024-11-05 UTC)

Documentation

Showing up to 5 results
|